| time (UTC) | temp F | wind direction | speed MPH | gust MPH | rain 1hr in | rain 24hr in | rain mn in | humidity % | barometer mb |
| 20260906222917 | 70 | 68 | 2.0 | 3.0 | 0.00 | 0.00 | 0.00 | 71 | 1027.7 |
| 20260906222415 | 70 | 68 | 3.0 | 5.0 | 0.00 | 0.00 | 0.00 | 70 | 1027.8 |
| 20260906221916 | 71 | 68 | 2.0 | 3.0 | 0.00 | 0.00 | 0.00 | 70 | 1027.8 |
| 20260906221415 | 70 | 68 | 2.0 | 3.0 | 0.00 | 0.00 | 0.00 | 71 | 1027.7 |
| 20260906220917 | 70 | 68 | 1.0 | 2.0 | 0.00 | 0.00 | 0.00 | 71 | 1027.8 |
| 20260906220416 | 70 | 68 | 0.0 | 1.0 | 0.00 | 0.00 | 0.00 | 70 | 1027.7 |
| 20260906215915 | 71 | 68 | 2.0 | 3.0 | 0.00 | 0.00 | 0.00 | 70 | 1027.7 |
| 20260906215417 | 71 | 68 | 2.0 | 3.0 | 0.00 | 0.00 | 0.00 | 70 | 1027.8 |
| 20260906214916 | 71 | 68 | 2.0 | 3.0 | 0.00 | 0.00 | 0.00 | 70 | 1027.7 |
| 20260906214415 | 71 | 68 | 2.0 | 6.0 | 0.00 | 0.00 | 0.00 | 70 | 1027.7 |
| 20260906213915 | 71 | 68 | 1.0 | 2.0 | 0.00 | 0.00 | 0.00 | 70 | 1027.8 |
| 20260906213416 | 71 | 68 | 2.0 | 3.0 | 0.00 | 0.00 | 0.00 | 70 | 1027.7 |
| 20260906212916 | 71 | 68 | 2.0 | 3.0 | 0.00 | 0.00 | 0.00 | 70 | 1027.6 |
| 20260906212415 | 71 | 68 | 3.0 | 3.0 | 0.00 | 0.00 | 0.00 | 70 | 1027.6 |
| 20260906211917 | 71 | 68 | 1.0 | 2.0 | 0.00 | 0.00 | 0.00 | 69 | 1027.6 |
| 20260906211416 | 72 | 68 | 3.0 | 6.0 | 0.00 | 0.00 | 0.00 | 70 | 1027.5 |
| 20260906210915 | 71 | 68 | 2.0 | 3.0 | 0.00 | 0.00 | 0.00 | 70 | 1027.5 |
| 20260906210417 | 71 | 68 | 3.0 | 5.0 | 0.00 | 0.00 | 0.00 | 69 | 1027.4 |
| 20260906205917 | 72 | 68 | 1.0 | 2.0 | 0.00 | 0.00 | 0.00 | 68 | 1027.4 |
| 20260906205416 | 72 | 68 | 2.0 | 3.0 | 0.00 | 0.00 | 0.00 | 69 | 1027.5 |
| 20260906204916 | 72 | 68 | 3.0 | 3.0 | 0.00 | 0.00 | 0.00 | 68 | 1027.5 |
| 20260906204415 | 72 | 68 | 2.0 | 3.0 | 0.00 | 0.00 | 0.00 | 68 | 1027.3 |
| 20260906203917 | 72 | 68 | 2.0 | 3.0 | 0.00 | 0.00 | 0.00 | 68 | 1027.4 |
| 20260906203416 | 72 | 68 | 3.0 | 3.0 | 0.00 | 0.00 | 0.00 | 68 | 1027.3 |
| 20260906202915 | 72 | 68 | 2.0 | 3.0 | 0.00 | 0.00 | 0.00 | 67 | 1027.3 |
| 20260906202415 | 73 | 68 | 2.0 | 3.0 | 0.00 | 0.00 | 0.00 | 63 | 1027.2 |
| 20260906201916 | 73 | 68 | 1.0 | 2.0 | 0.00 | 0.00 | 0.00 | 63 | 1027.3 |
| 20260906201416 | 73 | 68 | 2.0 | 3.0 | 0.00 | 0.00 | 0.00 | 63 | 1027.3 |
| 20260906200915 | 73 | 68 | 3.0 | 3.0 | 0.00 | 0.00 | 0.00 | 62 | 1027.3 |
| 20260906200416 | 73 | 68 | 0.0 | 1.0 | 0.00 | 0.00 | 0.00 | 62 | 1027.4 |
| 20260906195916 | 74 | 68 | 2.0 | 3.0 | 0.00 | 0.00 | 0.00 | 62 | 1027.3 |
| 20260906195415 | 74 | 68 | 1.0 | 2.0 | 0.00 | 0.00 | 0.00 | 62 | 1027.3 |
| 20260906194915 | 74 | 68 | 1.0 | 2.0 | 0.00 | 0.00 | 0.00 | 62 | 1027.3 |
| 20260906194416 | 74 | 68 | 2.0 | 5.0 | 0.00 | 0.00 | 0.00 | 62 | 1027.2 |
| 20260906193916 | 74 | 68 | 3.0 | 5.0 | 0.00 | 0.00 | 0.00 | 62 | 1027.1 |
| 20260906193415 | 74 | 68 | 3.0 | 6.0 | 0.00 | 0.00 | 0.00 | 62 | 1027.0 |
| 20260906192916 | 74 | 68 | 3.0 | 5.0 | 0.00 | 0.00 | 0.00 | 62 | 1027.1 |
| 20260906192416 | 74 | 68 | 2.0 | 5.0 | 0.00 | 0.00 | 0.00 | 62 | 1026.9 |
| 20260906191916 | 74 | 68 | 2.0 | 3.0 | 0.00 | 0.00 | 0.00 | 62 | 1026.7 |
| 20260906191415 | 74 | 68 | 2.0 | 3.0 | 0.00 | 0.00 | 0.00 | 61 | 1026.7 |
| 20260906190915 | 74 | 68 | 0.0 | 2.0 | 0.00 | 0.00 | 0.00 | 61 | 1026.6 |
| 20260906190416 | 75 | 68 | 2.0 | 3.0 | 0.00 | 0.00 | 0.00 | 61 | 1026.6 |
| 20260906185915 | 75 | 68 | 1.0 | 2.0 | 0.00 | 0.00 | 0.00 | 61 | 1026.6 |
| 20260906185416 | 75 | 68 | 2.0 | 3.0 | 0.00 | 0.00 | 0.00 | 61 | 1026.6 |
| 20260906184916 | 75 | 68 | 1.0 | 1.0 | 0.00 | 0.00 | 0.00 | 61 | 1026.5 |
| 20260906184415 | 76 | 68 | 0.0 | 1.0 | 0.00 | 0.00 | 0.00 | 60 | 1026.5 |
| 20260906183915 | 76 | 68 | 0.0 | 0.0 | 0.00 | 0.00 | 0.00 | 60 | 1026.3 |
| 20260906183416 | 76 | 68 | 0.0 | 1.0 | 0.00 | 0.00 | 0.00 | 60 | 1026.4 |
| 20260906182915 | 77 | 68 | 1.0 | 1.0 | 0.00 | 0.00 | 0.00 | 60 | 1026.2 |
| 20260906182415 | 77 | 68 | 1.0 | 2.0 | 0.00 | 0.00 | 0.00 | 59 | 1026.2 |
| 20260906181915 | 78 | 68 | 0.0 | 1.0 | 0.00 | 0.00 | 0.00 | 57 | 1026.2 |
| 20260906181416 | 78 | 68 | 1.0 | 3.0 | 0.00 | 0.00 | 0.00 | 57 | 1026.1 |
| 20260906180916 | 78 | 68 | 2.0 | 3.0 | 0.00 | 0.00 | 0.00 | 58 | 1026.0 |
| 20260906180415 | 79 | 68 | 1.0 | 3.0 | 0.00 | 0.00 | 0.00 | 57 | 1025.9 |
| 20260906175916 | 79 | 68 | 2.0 | 3.0 | 0.00 | 0.00 | 0.00 | 56 | 1025.9 |
| 20260906175416 | 80 | 68 | 2.0 | 3.0 | 0.00 | 0.00 | 0.00 | 55 | 1025.8 |
| 20260906174915 | 81 | 112 | 0.0 | 2.0 | 0.00 | 0.00 | 0.00 | 52 | 1025.9 |
| 20260906174415 | 81 | 112 | 3.0 | 3.0 | 0.00 | 0.00 | 0.00 | 52 | 1025.9 |
| 20260906173916 | 82 | 112 | 3.0 | 3.0 | 0.00 | 0.00 | 0.00 | 47 | 1025.9 |
| 20260906173416 | 82 | 112 | 1.0 | 2.0 | 0.00 | 0.00 | 0.00 | 47 | 1025.9 |
| 20260906172915 | 82 | 112 | 1.0 | 3.0 | 0.00 | 0.00 | 0.00 | 46 | 1025.9 |
| 20260906172416 | 83 | 112 | 2.0 | 3.0 | 0.00 | 0.00 | 0.00 | 45 | 1025.7 |
| 20260906171916 | 83 | 112 | 3.0 | 3.0 | 0.00 | 0.00 | 0.00 | 44 | 1025.7 |
| 20260906171416 | 83 | 112 | 3.0 | 5.0 | 0.00 | 0.00 | 0.00 | 43 | 1025.8 |
| 20260906170916 | 84 | 119 | 6.0 | 9.0 | 0.00 | 0.00 | 0.00 | 43 | 1025.6 |
| 20260906170416 | 84 | 135 | 3.0 | 6.0 | 0.00 | 0.00 | 0.00 | 43 | 1025.6 |
| 20260906165915 | 84 | 132 | 6.0 | 8.0 | 0.00 | 0.00 | 0.00 | 42 | 1025.7 |
| 20260906165416 | 84 | 112 | 6.0 | 9.0 | 0.00 | 0.00 | 0.00 | 42 | 1025.6 |
| 20260906164916 | 85 | 119 | 6.0 | 7.0 | 0.00 | 0.00 | 0.00 | 42 | 1025.5 |
| 20260906164415 | 85 | 116 | 7.0 | 9.0 | 0.00 | 0.00 | 0.00 | 42 | 1025.4 |
| 20260906163915 | 86 | 112 | 5.0 | 7.0 | 0.00 | 0.00 | 0.00 | 41 | 1025.4 |
| 20260906163416 | 86 | 139 | 6.0 | 8.0 | 0.00 | 0.00 | 0.00 | 41 | 1025.4 |
| 20260906162915 | 86 | 123 | 6.0 | 8.0 | 0.00 | 0.00 | 0.00 | 41 | 1025.3 |
| 20260906162421 | 87 | 128 | 8.0 | 12.0 | 0.00 | 0.00 | 0.00 | 40 | 1025.3 |
| 20260906161916 | 87 | 137 | 6.0 | 8.0 | 0.00 | 0.00 | 0.00 | 40 | 1025.3 |
| 20260906161415 | 88 | 135 | 6.0 | 9.0 | 0.00 | 0.00 | 0.00 | 40 | 1025.3 |
| 20260906160915 | 88 | 112 | 1.0 | 2.0 | 0.00 | 0.00 | 0.00 | 40 | 1025.3 |
| 20260906160417 | 88 | 143 | 2.0 | 6.0 | 0.00 | 0.00 | 0.00 | 40 | 1025.3 |
| 20260906155413 | 87 | 136 | 9.0 | 14.0 | 0.00 | 0.00 | 0.00 | 40 | 1025.1 |
| 20260906154911 | 88 | 135 | 7.0 | 8.0 | 0.00 | 0.00 | 0.00 | 40 | 1025.2 |
| 20260906154413 | 88 | 135 | 9.0 | 12.0 | 0.00 | 0.00 | 0.00 | 40 | 1025.1 |
| 20260906153912 | 88 | 135 | 5.0 | 10.0 | 0.00 | 0.00 | 0.00 | 40 | 1025.2 |
| 20260906153413 | 88 | 112 | 6.0 | 9.0 | 0.00 | 0.00 | 0.00 | 40 | 1025.2 |
| 20260906152912 | 88 | 135 | 5.0 | 10.0 | 0.00 | 0.00 | 0.00 | 40 | 1025.1 |
| 20260906152412 | 88 | 139 | 7.0 | 10.0 | 0.00 | 0.00 | 0.00 | 40 | 1025.2 |
| 20260906151913 | 88 | 112 | 3.0 | 6.0 | 0.00 | 0.00 | 0.00 | 40 | 1025.1 |
| 20260906151412 | 88 | 135 | 12.0 | 14.0 | 0.00 | 0.00 | 0.00 | 41 | 1025.2 |
| 20260906150913 | 88 | 147 | 3.0 | 15.0 | 0.00 | 0.00 | 0.00 | 41 | 1025.1 |
| 20260906150413 | 88 | 125 | 9.0 | 15.0 | 0.00 | 0.00 | 0.00 | 40 | 1025.1 |
| 20260906145912 | 88 | 158 | 6.0 | 8.0 | 0.00 | 0.00 | 0.00 | 41 | 1025.2 |
| 20260906145413 | 88 | 123 | 9.0 | 15.0 | 0.00 | 0.00 | 0.00 | 40 | 1025.2 |
| 20260906144912 | 88 | 112 | 10.0 | 15.0 | 0.00 | 0.00 | 0.00 | 41 | 1025.2 |
| 20260906144413 | 87 | 88 | 9.0 | 12.0 | 0.00 | 0.00 | 0.00 | 41 | 1025.1 |
| 20260906143912 | 87 | 90 | 10.0 | 15.0 | 0.00 | 0.00 | 0.00 | 41 | 1025.1 |
| 20260906143412 | 87 | 81 | 7.0 | 9.0 | 0.00 | 0.00 | 0.00 | 41 | 1025.2 |
| 20260906142913 | 87 | 138 | 8.0 | 13.0 | 0.00 | 0.00 | 0.00 | 41 | 1025.2 |
| 20260906142412 | 88 | 123 | 8.0 | 12.0 | 0.00 | 0.00 | 0.00 | 41 | 1025.1 |
| 20260906141912 | 88 | 112 | 7.0 | 12.0 | 0.00 | 0.00 | 0.00 | 41 | 1025.1 |
| 20260906141413 | 88 | 124 | 6.0 | 9.0 | 0.00 | 0.00 | 0.00 | 41 | 1025.1 |
| 20260906140912 | 88 | 151 | 12.0 | 16.0 | 0.00 | 0.00 | 0.00 | 41 | 1025.1 |
| 20260906140412 | 88 | 127 | 9.0 | 17.0 | 0.00 | 0.00 | 0.00 | 40 | 1025.2 |
| 20260906135913 | 88 | 158 | 7.0 | 8.0 | 0.00 | 0.00 | 0.00 | 40 | 1025.2 |
| 20260906135412 | 89 | 118 | 8.0 | 12.0 | 0.00 | 0.00 | 0.00 | 40 | 1025.3 |
| 20260906134911 | 88 | 112 | 5.0 | 18.0 | 0.00 | 0.00 | 0.00 | 41 | 1025.3 |
| 20260906134413 | 89 | 126 | 9.0 | 14.0 | 0.00 | 0.00 | 0.00 | 39 | 1025.3 |
| 20260906133912 | 89 | 132 | 6.0 | 12.0 | 0.00 | 0.00 | 0.00 | 40 | 1025.4 |
| 20260906133412 | 89 | 112 | 6.0 | 10.0 | 0.00 | 0.00 | 0.00 | 40 | 1025.3 |
| 20260906132913 | 89 | 112 | 7.0 | 12.0 | 0.00 | 0.00 | 0.00 | 40 | 1025.2 |
| 20260906132412 | 88 | 116 | 6.0 | 10.0 | 0.00 | 0.00 | 0.00 | 40 | 1025.2 |
| 20260906131913 | 88 | 112 | 9.0 | 15.0 | 0.00 | 0.00 | 0.00 | 40 | 1025.3 |
| 20260906131412 | 88 | 120 | 7.0 | 12.0 | 0.00 | 0.00 | 0.00 | 40 | 1025.3 |
| 20260906130912 | 88 | 130 | 10.0 | 13.0 | 0.00 | 0.00 | 0.00 | 40 | 1025.4 |
| 20260906130413 | 88 | 127 | 7.0 | 13.0 | 0.00 | 0.00 | 0.00 | 40 | 1025.4 |
| 20260906125913 | 88 | 152 | 8.0 | 10.0 | 0.00 | 0.00 | 0.00 | 40 | 1025.4 |
| 20260906125413 | 87 | 112 | 9.0 | 15.0 | 0.00 | 0.00 | 0.00 | 40 | 1025.5 |
| 20260906124912 | 88 | 124 | 7.0 | 15.0 | 0.00 | 0.00 | 0.00 | 40 | 1025.4 |
| 20260906124413 | 88 | 122 | 8.0 | 13.0 | 0.00 | 0.00 | 0.00 | 40 | 1025.6 |
| 20260906123912 | 88 | 158 | 3.0 | 6.0 | 0.00 | 0.00 | 0.00 | 40 | 1025.4 |
| 20260906123412 | 88 | 120 | 8.0 | 13.0 | 0.00 | 0.00 | 0.00 | 40 | 1025.5 |
| 20260906122913 | 88 | 135 | 8.0 | 12.0 | 0.00 | 0.00 | 0.00 | 40 | 1025.5 |
| 20260906122412 | 87 | 128 | 8.0 | 12.0 | 0.00 | 0.00 | 0.00 | 40 | 1025.5 |
| 20260906121913 | 87 | 135 | 6.0 | 10.0 | 0.00 | 0.00 | 0.00 | 40 | 1025.5 |
| 20260906121413 | 87 | 126 | 9.0 | 15.0 | 0.00 | 0.00 | 0.00 | 40 | 1025.5 |
| 20260906120913 | 87 | 128 | 10.0 | 13.0 | 0.00 | 0.00 | 0.00 | 40 | 1025.5 |
| 20260906120412 | 87 | 135 | 9.0 | 12.0 | 0.00 | 0.00 | 0.00 | 40 | 1025.6 |
| 20260906115913 | 87 | 135 | 9.0 | 12.0 | 0.00 | 0.00 | 0.00 | 40 | 1025.5 |
| 20260906115412 | 86 | 129 | 12.0 | 16.0 | 0.00 | 0.00 | 0.00 | 40 | 1025.6 |
| 20260906114913 | 87 | 129 | 8.0 | 10.0 | 0.00 | 0.00 | 0.00 | 40 | 1025.7 |
| 20260906114412 | 87 | 135 | 7.0 | 10.0 | 0.00 | 0.00 | 0.00 | 40 | 1025.8 |
| 20260906113911 | 88 | 134 | 8.0 | 15.0 | 0.00 | 0.00 | 0.00 | 38 | 1025.7 |
| 20260906113413 | 88 | 120 | 12.0 | 14.0 | 0.00 | 0.00 | 0.00 | 37 | 1025.7 |
| 20260906112912 | 89 | 135 | 10.0 | 12.0 | 0.00 | 0.00 | 0.00 | 36 | 1025.7 |
| 20260906112412 | 89 | 158 | 7.0 | 13.0 | 0.00 | 0.00 | 0.00 | 37 | 1025.6 |
| 20260906111912 | 89 | 131 | 8.0 | 9.0 | 0.00 | 0.00 | 0.00 | 36 | 1025.7 |
| 20260906111411 | 89 | 112 | 7.0 | 8.0 | 0.00 | 0.00 | 0.00 | 37 | 1025.7 |
| 20260906110913 | 90 | 135 | 10.0 | 14.0 | 0.00 | 0.00 | 0.00 | 35 | 1025.8 |
| 20260906110412 | 89 | 127 | 5.0 | 10.0 | 0.00 | 0.00 | 0.00 | 37 | 1025.7 |
| 20260906105912 | 89 | 112 | 6.0 | 8.0 | 0.00 | 0.00 | 0.00 | 35 | 1025.8 |
| 20260906105411 | 89 | 130 | 5.0 | 9.0 | 0.00 | 0.00 | 0.00 | 34 | 1025.9 |
| 20260906104913 | 88 | 112 | 6.0 | 8.0 | 0.00 | 0.00 | 0.00 | 34 | 1025.9 |
| 20260906104412 | 88 | 114 | 6.0 | 8.0 | 0.00 | 0.00 | 0.00 | 35 | 1025.9 |
| 20260906103911 | 89 | 120 | 6.0 | 8.0 | 0.00 | 0.00 | 0.00 | 34 | 1025.9 |
| 20260906103413 | 88 | 158 | 6.0 | 8.0 | 0.00 | 0.00 | 0.00 | 35 | 1026.0 |
| 20260906102912 | 89 | 150 | 6.0 | 10.0 | 0.00 | 0.00 | 0.00 | 35 | 1026.0 |
| 20260906102412 | 87 | 139 | 6.0 | 8.0 | 0.00 | 0.00 | 0.00 | 36 | 1026.0 |
| 20260906101913 | 87 | 158 | 6.0 | 10.0 | 0.00 | 0.00 | 0.00 | 35 | 1026.0 |
| 20260906101413 | 88 | 158 | 5.0 | 7.0 | 0.00 | 0.00 | 0.00 | 35 | 1026.1 |
| 20260906100912 | 88 | 146 | 6.0 | 8.0 | 0.00 | 0.00 | 0.00 | 34 | 1026.2 |
| 20260906100412 | 88 | 112 | 6.0 | 7.0 | 0.00 | 0.00 | 0.00 | 34 | 1026.2 |
| 20260906095913 | 88 | 112 | 5.0 | 7.0 | 0.00 | 0.00 | 0.00 | 35 | 1026.3 |
| 20260906095412 | 87 | 152 | 7.0 | 10.0 | 0.00 | 0.00 | 0.00 | 35 | 1026.4 |
| 20260906094912 | 87 | 135 | 6.0 | 9.0 | 0.00 | 0.00 | 0.00 | 36 | 1026.4 |
| 20260906094412 | 87 | 135 | 5.0 | 6.0 | 0.00 | 0.00 | 0.00 | 36 | 1026.4 |
| 20260906093911 | 87 | 157 | 5.0 | 8.0 | 0.00 | 0.00 | 0.00 | 35 | 1026.4 |
| 20260906093413 | 86 | 140 | 5.0 | 6.0 | 0.00 | 0.00 | 0.00 | 35 | 1026.5 |
| 20260906092912 | 86 | 112 | 6.0 | 8.0 | 0.00 | 0.00 | 0.00 | 33 | 1026.5 |
| 20260906092411 | 86 | 155 | 3.0 | 6.0 | 0.00 | 0.00 | 0.00 | 33 | 1026.5 |
| 20260906091913 | 87 | 158 | 6.0 | 8.0 | 0.00 | 0.00 | 0.00 | 33 | 1026.5 |
| 20260906091412 | 86 | 112 | 3.0 | 6.0 | 0.00 | 0.00 | 0.00 | 32 | 1026.6 |
| 20260906090912 | 87 | 115 | 3.0 | 5.0 | 0.00 | 0.00 | 0.00 | 31 | 1026.6 |
| 20260906090412 | 86 | 124 | 3.0 | 6.0 | 0.00 | 0.00 | 0.00 | 31 | 1026.6 |
| 20260906085913 | 86 | 158 | 5.0 | 7.0 | 0.00 | 0.00 | 0.00 | 30 | 1026.6 |
| 20260906085412 | 86 | 135 | 5.0 | 7.0 | 0.00 | 0.00 | 0.00 | 31 | 1026.6 |
| 20260906084912 | 86 | 112 | 5.0 | 7.0 | 0.00 | 0.00 | 0.00 | 30 | 1026.6 |
| 20260906084412 | 87 | 133 | 3.0 | 8.0 | 0.00 | 0.00 | 0.00 | 30 | 1026.6 |
| 20260906083912 | 87 | 158 | 1.0 | 2.0 | 0.00 | 0.00 | 0.00 | 30 | 1026.6 |
| 20260906083411 | 87 | 135 | 1.0 | 1.0 | 0.00 | 0.00 | 0.00 | 27 | 1026.6 |
| 20260906082913 | 87 | 135 | 1.0 | 3.0 | 0.00 | 0.00 | 0.00 | 26 | 1026.7 |
| 20260906082412 | 87 | 135 | 1.0 | 2.0 | 0.00 | 0.00 | 0.00 | 26 | 1026.7 |
| 20260906081911 | 87 | 135 | 1.0 | 1.0 | 0.00 | 0.00 | 0.00 | 27 | 1026.6 |
| 20260906081413 | 86 | 135 | 1.0 | 2.0 | 0.00 | 0.00 | 0.00 | 28 | 1026.7 |
| 20260906080912 | 85 | 135 | 0.0 | 1.0 | 0.00 | 0.00 | 0.00 | 29 | 1026.5 |
| 20260906080411 | 85 | 135 | 2.0 | 3.0 | 0.00 | 0.00 | 0.00 | 30 | 1026.6 |
| 20260906075913 | 86 | 135 | 1.0 | 3.0 | 0.00 | 0.00 | 0.00 | 28 | 1026.7 |
| 20260906075412 | 86 | 135 | 1.0 | 2.0 | 0.00 | 0.00 | 0.00 | 30 | 1026.6 |
| 20260906074911 | 84 | 135 | 0.0 | 0.0 | 0.00 | 0.00 | 0.00 | 30 | 1026.5 |
| 20260906074413 | 82 | 135 | 1.0 | 2.0 | 0.00 | 0.00 | 0.00 | 30 | 1026.6 |
| 20260906073912 | 82 | 135 | 2.0 | 3.0 | 0.00 | 0.00 | 0.00 | 31 | 1026.6 |
| 20260906073411 | 81 | 135 | 2.0 | 5.0 | 0.00 | 0.00 | 0.00 | 34 | 1026.7 |
| 20260906072913 | 80 | 135 | 6.0 | 6.0 | 0.00 | 0.00 | 0.00 | 34 | 1026.7 |
| 20260906072412 | 80 | 135 | 2.0 | 6.0 | 0.00 | 0.00 | 0.00 | 35 | 1026.7 |
| 20260906071911 | 79 | 135 | 2.0 | 5.0 | 0.00 | 0.00 | 0.00 | 34 | 1026.6 |
| 20260906071413 | 79 | 135 | 3.0 | 5.0 | 0.00 | 0.00 | 0.00 | 35 | 1026.5 |
| 20260906070911 | 79 | 135 | 3.0 | 6.0 | 0.00 | 0.00 | 0.00 | 35 | 1026.6 |
| 20260906070413 | 78 | 135 | 6.0 | 6.0 | 0.00 | 0.00 | 0.00 | 35 | 1026.5 |
| 20260906065912 | 78 | 135 | 5.0 | 6.0 | 0.00 | 0.00 | 0.00 | 36 | 1026.5 |
| 20260906065412 | 78 | 135 | 3.0 | 6.0 | 0.00 | 0.00 | 0.00 | 36 | 1026.7 |
| 20260906064912 | 77 | 135 | 5.0 | 6.0 | 0.00 | 0.00 | 0.00 | 37 | 1026.5 |
| 20260906064411 | 77 | 135 | 3.0 | 7.0 | 0.00 | 0.00 | 0.00 | 37 | 1026.5 |
| 20260906063913 | 77 | 135 | 5.0 | 6.0 | 0.00 | 0.00 | 0.00 | 38 | 1026.4 |
| 20260906063412 | 77 | 135 | 6.0 | 8.0 | 0.00 | 0.00 | 0.00 | 37 | 1026.4 |
| 20260906062912 | 76 | 135 | 3.0 | 6.0 | 0.00 | 0.00 | 0.00 | 38 | 1026.5 |
| 20260906062411 | 76 | 135 | 3.0 | 6.0 | 0.00 | 0.00 | 0.00 | 38 | 1026.5 |
| 20260906061912 | 75 | 135 | 5.0 | 6.0 | 0.00 | 0.00 | 0.00 | 39 | 1026.5 |
| 20260906061412 | 75 | 135 | 3.0 | 6.0 | 0.00 | 0.00 | 0.00 | 40 | 1026.4 |
| 20260906060911 | 74 | 135 | 3.0 | 6.0 | 0.00 | 0.00 | 0.00 | 40 | 1026.4 |
| 20260906060413 | 74 | 135 | 2.0 | 5.0 | 0.00 | 0.00 | 0.00 | 42 | 1026.2 |
| 20260906055912 | 72 | 135 | 0.0 | 0.0 | 0.00 | 0.00 | 0.00 | 47 | 1026.3 |
| 20260906055412 | 72 | 135 | 1.0 | 2.0 | 0.00 | 0.00 | 0.00 | 47 | 1026.3 |
| 20260906054913 | 71 | 156 | 2.0 | 3.0 | 0.00 | 0.00 | 0.00 | 49 | 1026.2 |
| 20260906054412 | 69 | 158 | 1.0 | 2.0 | 0.00 | 0.00 | 0.00 | 50 | 1026.1 |
| 20260906053912 | 68 | 158 | 0.0 | 1.0 | 0.00 | 0.00 | 0.00 | 51 | 1026.0 |
| 20260906053411 | 68 | 158 | 1.0 | 3.0 | 0.00 | 0.00 | 0.00 | 51 | 1026.0 |
| 20260906052913 | 68 | 135 | 2.0 | 5.0 | 0.00 | 0.00 | 0.00 | 50 | 1025.9 |
| 20260906052412 | 67 | 135 | 2.0 | 3.0 | 0.00 | 0.00 | 0.00 | 51 | 1025.9 |
| 20260906051911 | 68 | 135 | 1.0 | 2.0 | 0.00 | 0.00 | 0.00 | 51 | 1025.9 |
| 20260906051413 | 68 | 158 | 1.0 | 1.0 | 0.00 | 0.00 | 0.00 | 50 | 1025.8 |
| 20260906050912 | 69 | 139 | 3.0 | 3.0 | 0.00 | 0.00 | 0.00 | 49 | 1025.6 |
| 20260906050412 | 69 | 145 | 3.0 | 6.0 | 0.00 | 0.00 | 0.00 | 49 | 1025.7 |
| 20260906045911 | 69 | 135 | 2.0 | 5.0 | 0.00 | 0.00 | 0.00 | 50 | 1025.7 |
| 20260906045412 | 68 | 135 | 2.0 | 3.0 | 0.00 | 0.00 | 0.00 | 50 | 1025.5 |
| 20260906044912 | 68 | 158 | 1.0 | 3.0 | 0.00 | 0.00 | 0.00 | 50 | 1025.5 |
| 20260906044411 | 68 | 145 | 1.0 | 3.0 | 0.00 | 0.00 | 0.00 | 50 | 1025.5 |
| 20260906043913 | 68 | 140 | 2.0 | 3.0 | 0.00 | 0.00 | 0.00 | 51 | 1025.4 |
| 20260906043412 | 67 | 153 | 1.0 | 2.0 | 0.00 | 0.00 | 0.00 | 51 | 1025.4 |
| 20260906042912 | 67 | 155 | 2.0 | 3.0 | 0.00 | 0.00 | 0.00 | 51 | 1025.2 |
| 20260906042411 | 67 | 135 | 2.0 | 3.0 | 0.00 | 0.00 | 0.00 | 50 | 1025.2 |
| 20260906041912 | 68 | 158 | 1.0 | 2.0 | 0.00 | 0.00 | 0.00 | 51 | 1025.3 |
| 20260906041412 | 68 | 153 | 2.0 | 3.0 | 0.00 | 0.00 | 0.00 | 51 | 1025.1 |
| 20260906040911 | 66 | 158 | 1.0 | 3.0 | 0.00 | 0.00 | 0.00 | 52 | 1025.1 |
| 20260906040413 | 67 | 135 | 0.0 | 1.0 | 0.00 | 0.00 | 0.00 | 52 | 1025.2 |
| 20260906035413 | 67 | 148 | 1.0 | 1.0 | 0.00 | 0.00 | 0.00 | 51 | 1025.1 |
| 20260906034912 | 67 | 153 | 3.0 | 7.0 | 0.00 | 0.00 | 0.00 | 52 | 1025.1 |
| 20260906034412 | 67 | 135 | 2.0 | 3.0 | 0.00 | 0.00 | 0.00 | 52 | 1025.2 |
| 20260906033911 | 67 | 143 | 0.0 | 1.0 | 0.00 | 0.00 | 0.00 | 51 | 1025.1 |
| 20260906033412 | 67 | 152 | 3.0 | 3.0 | 0.00 | 0.00 | 0.00 | 51 | 1025.2 |
| 20260906032912 | 67 | 158 | 3.0 | 3.0 | 0.00 | 0.00 | 0.00 | 51 | 1025.1 |
| 20260906032411 | 68 | 135 | 2.0 | 3.0 | 0.00 | 0.00 | 0.00 | 50 | 1025.0 |
| 20260906031913 | 68 | 158 | 3.0 | 5.0 | 0.00 | 0.00 | 0.00 | 50 | 1025.1 |
| 20260906031412 | 69 | 158 | 1.0 | 2.0 | 0.00 | 0.00 | 0.00 | 49 | 1025.0 |
| 20260906030911 | 69 | 154 | 3.0 | 5.0 | 0.00 | 0.00 | 0.00 | 47 | 1024.9 |
| 20260906030413 | 70 | 154 | 2.0 | 5.0 | 0.00 | 0.00 | 0.00 | 46 | 1025.0 |
| 20260906025912 | 71 | 135 | 2.0 | 3.0 | 0.00 | 0.00 | 0.00 | 44 | 1025.0 |
| 20260906025412 | 72 | 194 | 1.0 | 5.0 | 0.00 | 0.00 | 0.00 | 43 | 1024.9 |
| 20260906024913 | 72 | 135 | 5.0 | 7.0 | 0.00 | 0.00 | 0.00 | 43 | 1024.9 |
| 20260906024412 | 71 | 135 | 3.0 | 5.0 | 0.00 | 0.00 | 0.00 | 44 | 1024.8 |
| 20260906023911 | 71 | 254 | 2.0 | 5.0 | 0.00 | 0.00 | 0.00 | 45 | 1024.7 |
| 20260906023413 | 71 | 225 | 1.0 | 1.0 | 0.00 | 0.00 | 0.00 | 45 | 1024.8 |
| 20260906022911 | 71 | 250 | 1.0 | 2.0 | 0.00 | 0.00 | 0.00 | 44 | 1024.7 |
| 20260906022413 | 72 | 135 | 2.0 | 3.0 | 0.00 | 0.00 | 0.00 | 44 | 1024.6 |
| 20260906021912 | 71 | 242 | 5.0 | 7.0 | 0.00 | 0.00 | 0.00 | 45 | 1024.7 |
| 20260906021412 | 70 | 266 | 2.0 | 3.0 | 0.00 | 0.00 | 0.00 | 47 | 1024.6 |
| 20260906020911 | 70 | 225 | 1.0 | 2.0 | 0.00 | 0.00 | 0.00 | 49 | 1024.6 |
| 20260906020412 | 68 | 135 | 3.0 | 6.0 | 0.00 | 0.00 | 0.00 | 50 | 1024.5 |
| 20260906015911 | 68 | 139 | 3.0 | 5.0 | 0.00 | 0.00 | 0.00 | 51 | 1024.6 |
| 20260906015413 | 69 | 187 | 5.0 | 8.0 | 0.00 | 0.00 | 0.00 | 50 | 1024.5 |
| 20260906014912 | 68 | 180 | 3.0 | 6.0 | 0.00 | 0.00 | 0.00 | 51 | 1024.4 |
| 20260906014412 | 68 | 95 | 1.0 | 2.0 | 0.00 | 0.00 | 0.00 | 51 | 1024.6 |
| 20260906013911 | 68 | 180 | 2.0 | 5.0 | 0.00 | 0.00 | 0.00 | 52 | 1024.5 |
| 20260906013412 | 68 | 215 | 0.0 | 2.0 | 0.00 | 0.00 | 0.00 | 51 | 1024.6 |
| 20260906012911 | 69 | 45 | 0.0 | 1.0 | 0.00 | 0.00 | 0.00 | 50 | 1024.5 |
| 20260906012413 | 69 | 45 | 1.0 | 2.0 | 0.00 | 0.00 | 0.00 | 50 | 1024.5 |
| 20260906011912 | 69 | 210 | 3.0 | 5.0 | 0.00 | 0.00 | 0.00 | 50 | 1024.6 |
| 20260906011412 | 69 | 270 | 2.0 | 3.0 | 0.00 | 0.00 | 0.00 | 50 | 1024.5 |
| 20260906010911 | 70 | 240 | 0.0 | 1.0 | 0.00 | 0.00 | 0.00 | 49 | 1024.5 |
| 20260906010413 | 70 | 225 | 0.0 | 3.0 | 0.00 | 0.00 | 0.00 | 49 | 1024.5 |
| 20260906005911 | 70 | 225 | 3.0 | 6.0 | 0.00 | 0.00 | 0.00 | 48 | 1024.3 |
| 20260906005412 | 70 | 135 | 2.0 | 5.0 | 0.00 | 0.00 | 0.00 | 50 | 1024.3 |
| 20260906004912 | 70 | 135 | 5.0 | 6.0 | 0.00 | 0.00 | 0.00 | 48 | 1024.2 |
| 20260906004411 | 71 | 135 | 0.0 | 1.0 | 0.00 | 0.00 | 0.00 | 47 | 1024.4 |
| 20260906003913 | 71 | 135 | 1.0 | 2.0 | 0.00 | 0.00 | 0.00 | 49 | 1024.4 |
| 20260906003411 | 71 | 158 | 2.0 | 3.0 | 0.00 | 0.00 | 0.00 | 48 | 1024.4 |
| 20260906002913 | 71 | 145 | 2.0 | 3.0 | 0.00 | 0.00 | 0.00 | 50 | 1024.4 |
| 20260906002412 | 71 | 158 | 3.0 | 3.0 | 0.00 | 0.00 | 0.00 | 50 | 1024.3 |
| 20260906001911 | 71 | 315 | 2.0 | 3.0 | 0.00 | 0.00 | 0.00 | 48 | 1024.4 |
| 20260906001411 | 72 | 315 | 1.0 | 2.0 | 0.00 | 0.00 | 0.00 | 47 | 1024.3 |
| 20260906000911 | 73 | 326 | 2.0 | 3.0 | 0.00 | 0.00 | 0.00 | 42 | 1024.4 |
| 20260906000413 | 72 | 158 | 5.0 | 7.0 | 0.00 | 0.00 | 0.00 | 46 | 1024.2 |
| 20260905235912 | 73 | 225 | 1.0 | 2.0 | 0.00 | 0.00 | 0.00 | 43 | 1024.1 |
| 20260905235411 | 73 | 180 | 5.0 | 5.0 | 0.00 | 0.00 | 0.00 | 42 | 1024.1 |
| 20260905234911 | 73 | 135 | 1.0 | 3.0 | 0.00 | 0.00 | 0.00 | 41 | 1024.2 |
| 20260905234412 | 74 | 217 | 3.0 | 5.0 | 0.00 | 0.00 | 0.00 | 41 | 1024.1 |
| 20260905233912 | 75 | 180 | 3.0 | 5.0 | 0.00 | 0.00 | 0.00 | 39 | 1023.9 |
| 20260905233411 | 76 | 135 | 1.0 | 2.0 | 0.00 | 0.00 | 0.00 | 38 | 1023.9 |
| 20260905232911 | 76 | 135 | 2.0 | 3.0 | 0.00 | 0.00 | 0.00 | 36 | 1023.9 |
| 20260905232412 | 76 | 135 | 0.0 | 0.0 | 0.00 | 0.00 | 0.00 | 37 | 1023.9 |
| 20260905231912 | 76 | 135 | 1.0 | 3.0 | 0.00 | 0.00 | 0.00 | 40 | 1024.0 |
| 20260905231411 | 77 | 68 | 2.0 | 5.0 | 0.00 | 0.00 | 0.00 | 40 | 1024.0 |
| 20260905230912 | 77 | 135 | 0.0 | 0.0 | 0.00 | 0.00 | 0.00 | 38 | 1024.0 |
| 20260905230411 | 78 | 107 | 1.0 | 3.0 | 0.00 | 0.00 | 0.00 | 36 | 1024.0 |
| 20260905225912 | 79 | 45 | 2.0 | 3.0 | 0.00 | 0.00 | 0.00 | 32 | 1024.0 |
| 20260905225412 | 80 | 45 | 1.0 | 2.0 | 0.00 | 0.00 | 0.00 | 30 | 1023.9 |
| 20260905224911 | 81 | 355 | 1.0 | 2.0 | 0.00 | 0.00 | 0.00 | 30 | 1024.0 |
| 20260905224412 | 82 | 270 | 2.0 | 3.0 | 0.00 | 0.00 | 0.00 | 26 | 1023.9 |
| 20260905223912 | 82 | 242 | 3.0 | 5.0 | 0.00 | 0.00 | 0.00 | 26 | 1023.9 |
| 20260905223411 | 82 | 253 | 6.0 | 9.0 | 0.00 | 0.00 | 0.00 | 26 | 1023.9 |